FW4468 Weather Reports


Display with metric or nautical units.
time (UTC)temp
F
wind
direction
speed
MPH
gust
MPH
rain 1hr
in
rain 24hr
in
rain mn
in
humidity
%
barometer
mb
20260504194550 76 156 3.0 8.0 0.00 0.00 0.00 35 1009.7
20260504193042 76 209 2.0 7.0 0.00 0.00 0.00 32 1009.8
20260504191553 76 184 3.0 8.0 0.00 0.00 0.00 30 1009.9
20260504190045 76 140 2.0 8.0 0.00 0.00 0.00 28 1010.1
20260504184545 75 137 1.0 8.0 0.00 0.00 0.00 33 1010.0
20260504183033 74 102 3.0 8.0 0.00 0.00 0.00 35 1010.0
20260504181534 73 151 2.0 7.0 0.00 0.00 0.00 38 1010.0
20260504180027 71 216 3.0 6.0 0.00 0.00 0.00 39 1010.0
20260504174522 70 158 3.0 7.0 0.00 0.00 0.00 41 1010.2
20260504173020 70 195 3.0 6.0 0.00 0.00 0.00 41 1010.2
20260504171522 69 185 4.0 7.0 0.00 0.00 0.00 39 1010.2
20260504081513 55 162 0.0 2.0 0.00 0.00 0.00 53 1008.6
20260504080110 56 162 0.0 0.0 0.00 0.00 0.00 51 1008.6
20260504050151 65 160 0.0 2.0 0.00 0.00 0.00 34 1008.5
20260504044550 65 159 0.0 2.0 0.00 0.00 0.00 35 1008.6
20260504043056 66 161 0.0 2.0 0.00 0.00 0.00 34 1008.5
20260504041549 66 143 0.0 3.0 0.00 0.00 0.00 35 1008.5
20260504040111 67 128 0.0 3.0 0.00 0.00 0.00 34 1008.5
20260504034548 68 121 0.0 2.0 0.00 0.00 0.00 35 1008.4
20260504033049 69 120 0.0 2.0 0.00 0.00 0.00 33 1008.4
20260504031556 71 107 1.0 2.0 0.00 0.00 0.00 33 1008.4
20260504030046 72 257 0.0 2.0 0.00 0.00 0.00 29 1008.4
20260504024546 74 260 0.0 2.0 0.00 0.00 0.00 26 1008.5
20260504023044 74 83 0.0 3.0 0.00 0.00 0.00 26 1008.5
20260504021543 75 339 2.0 7.0 0.00 0.00 0.00 25 1008.6
20260504020043 75 92 0.0 5.0 0.00 0.00 0.00 24 1008.7
20260504014542 76 338 2.0 8.0 0.00 0.00 0.00 23 1008.8
20260504013042 77 307 2.0 5.0 0.00 0.00 0.00 23 1008.8
20260504011540 78 306 1.0 11.0 0.00 0.00 0.00 24 1008.9
20260504010035 78 159 2.0 8.0 0.00 0.00 0.00 24 1009.0
20260504004534 79 51 2.0 9.0 0.00 0.00 0.00 24 1009.1
20260504003033 80 234 2.0 8.0 0.00 0.00 0.00 21 1009.2
20260504001536 80 244 2.0 6.0 0.00 0.00 0.00 22 1009.3
20260504000029 80 257 2.0 7.0 0.00 0.00 0.00 23 1009.5
20260503234534 80 30 1.0 8.0 0.00 0.00 0.00 22 1009.7
20260503233035 80 125 1.0 6.0 0.00 0.00 0.00 25 1009.8
20260503231523 80 333 3.0 6.0 0.00 0.00 0.00 24 1010.1
20260503230022 80 78 1.0 8.0 0.00 0.00 0.00 26 1010.3
20260503224521 81 28 2.0 11.0 0.00 0.00 0.00 23 1010.5
20260503223018 80 84 2.0 9.0 0.00 0.00 0.00 24 1010.7
20260503221526 81 30 3.0 9.0 0.00 0.00 0.00 25 1010.8
20260503220014 81 107 2.0 7.0 0.00 0.00 0.00 27 1011.0
20260503214513 80 246 1.0 10.0 0.00 0.00 0.00 23 1011.0
20260503213009 80 28 2.0 10.0 0.00 0.00 0.00 25 1011.3
20260503211508 80 80 4.0 10.0 0.00 0.00 0.00 24 1011.3
20260503210006 80 84 2.0 10.0 0.00 0.00 0.00 24 1011.4
20260503204504 79 69 2.0 8.0 0.00 0.00 0.00 25 1011.5
20260503203059 78 29 2.0 13.0 0.00 0.00 0.00 27 1011.6
20260503201555 78 84 2.0 10.0 0.00 0.00 0.00 30 1011.9
20260503200056 77 50 2.0 8.0 0.00 0.00 0.00 31 1012.1